Wind_Speed
36 36 38 36 43 35 34 30 27 24 21 18 15 13 12 12 10 11 11 10 10 10 9 8 8 7 6 5 6 7 8 9 12 14 15 16 16 17 16 16 17 16 16
35 38 42 42 44 37 35 33 28 26 23 21 18 15 14 13 12 12 12 12 12 12 11 10 9 9 8 8 8 9 10 12 14 14 14 15 16 18 18 17 17 17 17
46 39 44 42 40 42 37 36 32 30 28 25 21 17 16 15 15 15 14 13 13 14 12 12 11 11 11 11 11 12 13 14 14 16 16 17 18 18 19 19 19 17 16
56 45 44 43 45 37 42 37 35 32 29 26 22 19 18 18 18 18 17 15 14 13 12 12 14 14 14 14 15 15 15 16 17 17 19 19 20 20 21 21 21 19 18
45 42 49 46 43 43 42 40 39 34 31 28 25 23 21 21 21 21 20 18 18 16 13 14 15 16 18 19 19 19 18 19 19 19 20 21 22 23 24 24 23 21 20
49 54 54 47 36 40 43 42 38 36 33 30 28 26 25 24 24 22 22 21 18 18 19 17 19 20 20 22 23 23 22 22 22 22 22 23 24 27 27 25 22 22 20
47 46 48 52 40 40 42 42 39 39 36 33 32 30 28 27 25 24 24 23 22 23 24 22 23 25 23 25 26 26 24 25 25 25 26 28 30 30 28 24 22 22 21
36 46 47 44 36 36 37 37 41 39 36 36 34 31 31 29 26 26 27 25 24 24 24 23 27 26 26 28 30 29 29 29 29 30 32 34 34 29 24 23 21 20 22
32 48 48 38 34 35 38 41 43 39 36 37 35 34 34 33 29 28 27 24 22 22 24 27 25 30 29 29 32 33 33 33 33 32 34 35 28 22 21 20 19 19 20
39 49 53 41 39 37 36 37 36 36 38 37 37 36 35 32 31 31 26 23 30 29 30 29 32 30 36 32 35 37 37 36 35 35 33 26 25 20 21 20 19 20 21
32 38 43 49 40 36 36 37 38 39 39 41 39 38 37 36 33 34 32 43 37 41 41 42 45 44 43 45 42 37 42 43 40 33 29 25 27 21 23 21 20 20 19
32 34 44 44 41 40 43 43 43 44 43 40 41 44 41 41 36 40 41 45 48 49 50 49 47 45 42 39 45 45 45 37 32 27 26 25 25 21 24 22 22 22 21
23 23 37 39 46 45 47 42 44 47 48 51 40 40 38 37 46 56 57 55 51 50 48 51 41 39 40 41 38 39 43 31 27 26 25 24 24 23 24 22 22 23 22
16 30 26 28 30 35 41 37 55 34 50 49 42 50 55 53 40 37 44 55 53 50 45 43 41 40 44 49 40 36 34 28 24 25 24 24 24 23 23 23 25 25 24
15 24 25 27 17 25 28 41 42 48 49 46 53 49 51 47 39 47 35 39 42 46 41 39 45 50 41 39 32 24 28 26 24 23 25 24 25 25 25 24 24 23 24
14 8 12 25 20 21 23 22 26 28 32 24 27 31 32 33 30 31 32 23 29 29 26 17 19 20 29 25 23 20 23 24 24 24 25 26 26 25 25 24 26 25 26
10 11 11 9 22 18 23 22 24 27 26 30 32 35 34 33 34 34 35 32 30 27 27 28 24 23 22 23 26 25 25 25 25 26 25 25 25 25 25 27 28 28 27
14 17 20 21 22 24 30 29 27 29 32 35 35 36 34 34 35 36 36 32 33 31 33 38 29 29 27 30 27 25 25 26 27 26 26 25 25 26 27 27 26 26 25
20 21 23 26 28 29 31 34 34 35 36 37 38 39 38 38 38 38 36 35 33 38 33 31 35 29 32 32 25 26 26 27 27 27 27 26 26 28 28 26 26 26 25
27 28 29 30 32 34 36 37 38 38 38 39 38 38 36 36 35 39 38 35 35 41 39 33 38 33 28 27 27 25 26 27 27 27 27 28 28 28 27 27 26 26 25
32 33 33 34 34 35 37 38 40 40 40 41 41 41 41 40 39 38 36 39 33 39 36 30 31 30 30 30 28 26 27 27 27 27 27 27 28 28 27 27 27 26 24
34 36 37 38 37 37 38 38 39 40 40 40 39 40 40 41 41 40 34 34 36 41 41 33 35 36 34 34 29 28 27 26 27 27 28 26 27 26 27 27 28 26 22
37 38 40 41 42 42 43 41 40 39 39 41 41 41 41 40 41 39 41 40 39 43 39 39 41 40 41 35 32 28 28 29 29 28 27 27 26 26 27 27 27 25 21
41 42 43 44 44 44 46 46 45 44 43 40 40 41 42 42 42 41 42 40 41 43 39 40 40 48 43 38 31 29 31 31 29 27 27 27 27 27 26 26 26 24 21
46 49 49 49 50 49 49 50 50 49 47 45 43 42 42 42 42 42 44 46 46 43 53 44 43 40 40 38 30 31 32 30 31 27 27 27 26 27 25 24 23 22 19
52 54 54 54 54 54 52 52 52 52 51 49 45 43 42 43 42 43 45 44 47 46 41 43 41 38 34 32 37 34 34 31 32 29 27 28 26 26 25 22 22 21 19
Wind_Direction
226 229 232 232 227 213 219 221 224 226 226 228 233 239 245 251 253 258 258 257 253 253 253 258 263 265 274 290 310 320 332 329 331 331 332 330 327 327 326 326 324 323 318
225 231 236 238 237 218 214 218 220 226 226 228 231 237 243 248 250 252 254 255 254 255 254 253 258 265 274 289 301 311 320 325 326 329 331 329 329 325 322 322 320 320 318
234 232 237 233 217 224 209 218 215 222 224 227 232 238 246 251 251 251 251 252 248 250 257 257 259 266 272 282 290 298 308 314 319 320 323 323 323 319 318 316 315 315 314
232 238 237 234 226 197 212 214 222 221 226 230 235 241 246 250 251 251 252 254 254 247 250 256 267 269 274 278 282 288 298 301 306 311 316 319 316 314 313 310 309 309 306
232 252 247 232 229 217 208 213 221 222 226 231 236 243 248 251 251 251 253 256 261 259 253 256 264 269 271 274 278 283 287 291 296 301 306 312 314 311 310 306 304 305 303
242 254 245 226 217 209 214 212 220 225 227 232 238 244 248 251 252 254 253 253 256 261 260 261 264 266 269 273 275 279 283 286 290 294 300 304 308 310 306 303 306 304 299
243 228 228 236 224 206 213 217 219 225 227 232 238 243 248 250 252 254 256 257 265 265 260 262 265 269 269 271 274 275 276 281 285 290 295 300 303 303 301 300 304 301 297
235 218 225 233 234 231 209 220 224 227 230 235 242 247 249 250 251 255 257 260 262 264 269 276 271 269 269 271 272 272 275 278 282 289 295 299 300 295 295 304 302 300 297
251 214 217 227 225 218 219 217 225 229 233 239 243 247 248 252 253 253 254 256 260 267 263 264 270 277 273 270 270 271 272 276 283 290 297 299 293 292 290 297 300 298 298
264 230 217 215 221 222 219 222 225 231 234 240 243 245 250 250 248 246 247 255 267 267 277 276 284 290 282 267 275 270 270 274 280 290 293 287 285 289 289 296 295 299 300
235 227 221 216 220 222 223 227 231 236 236 237 241 243 242 245 245 247 250 260 264 277 277 273 282 281 289 282 271 265 269 269 279 280 282 284 286 295 292 293 290 290 297
232 232 219 218 217 221 226 222 224 227 229 234 238 241 241 243 250 251 261 270 272 272 272 270 272 272 273 273 284 276 270 275 271 274 277 280 283 289 286 290 291 292 292
214 231 222 222 214 214 222 225 226 231 235 238 237 239 245 252 259 260 267 271 271 274 272 271 265 266 270 264 274 275 276 259 265 271 275 277 282 284 288 289 291 286 286
221 222 225 232 230 232 220 233 221 238 244 249 241 243 251 256 263 262 265 267 272 272 269 261 260 256 269 263 261 257 264 255 268 274 278 280 280 282 284 287 284 284 284
250 245 254 244 241 240 248 245 236 230 243 245 244 259 261 255 251 266 270 261 255 263 269 269 266 255 256 243 250 248 257 259 264 274 277 277 280 281 282 284 286 285 282
237 240 221 238 227 257 253 249 247 250 245 244 253 253 253 250 245 258 270 248 250 253 253 250 245 254 249 243 241 248 256 262 268 272 273 275 276 278 283 287 285 283 281
301 292 294 272 247 273 271 265 262 247 252 260 262 266 261 257 257 256 260 261 243 250 245 244 248 249 245 243 251 254 258 265 271 272 271 272 276 281 283 282 281 280 282
277 274 273 271 266 266 271 272 269 265 262 261 264 264 264 263 262 260 259 260 260 242 250 242 246 245 247 255 246 254 265 272 273 273 274 276 281 283 282 282 283 284 288
271 266 264 264 263 261 261 264 265 263 261 263 265 265 263 262 262 264 262 260 254 259 246 247 245 258 244 252 244 257 268 276 276 276 278 280 280 280 281 284 282 284 285
285 281 274 268 265 265 264 264 264 263 262 263 262 262 263 266 265 262 259 262 260 244 248 248 245 244 246 246 251 263 275 277 275 276 279 280 281 282 281 279 280 280 282
284 283 281 279 276 272 270 268 264 262 262 261 260 260 260 260 260 261 255 254 258 255 242 240 246 243 242 245 252 262 274 280 278 275 276 279 282 281 280 281 280 279 276
281 281 281 280 278 277 276 274 271 272 270 267 264 263 261 258 258 259 253 252 239 255 248 243 237 239 249 238 247 257 267 279 276 273 272 275 277 278 279 279 279 271 269
284 280 277 275 274 275 275 273 271 269 266 265 265 264 262 262 259 249 247 247 244 247 254 246 242 242 245 239 241 255 269 275 273 270 272 276 278 276 277 276 270 267 263
288 285 281 279 275 272 270 269 269 268 265 262 260 258 257 255 255 254 245 243 243 241 247 249 252 245 242 244 242 255 261 270 271 268 271 274 274 275 275 271 267 262 253
281 280 279 275 271 269 268 267 267 265 264 263 260 257 254 252 251 250 248 245 237 249 252 253 259 264 264 252 249 257 259 266 265 263 265 269 270 271 266 261 259 252 242
274 274 274 275 276 275 273 270 269 266 265 264 261 259 256 254 249 247 247 247 248 248 250 247 250 250 255 258 257 252 258 260 258 257 259 262 265 265 259 253 245 238 231
Height
3122 3123 3125 3128 3129 3133 3137 3140 3144 3146 3148 3149 3150 3150 3151 3152 3153 3153 3154 3154 3154 3154 3155 3155 3155 3154 3153 3152 3151 3150 3150 3149 3148 3147 3145 3143 3141 3140 3137 3136 3134 3133 3131
3115 3117 3119 3121 3120 3127 3132 3135 3139 3142 3145 3146 3147 3147 3148 3149 3150 3151 3151 3151 3152 3152 3153 3152 3152 3152 3152 3151 3150 3149 3148 3147 3146 3145 3143 3141 3139 3137 3135 3133 3131 3130 3129
3112 3111 3110 3113 3112 3119 3126 3130 3131 3136 3140 3142 3143 3144 3144 3145 3146 3147 3148 3148 3149 3150 3150 3150 3150 3150 3149 3149 3148 3147 3146 3145 3144 3143 3141 3139 3137 3135 3133 3131 3129 3127 3126
3104 3103 3105 3109 3104 3107 3121 3123 3127 3131 3136 3138 3140 3140 3140 3141 3142 3144 3145 3145 3146 3146 3147 3146 3147 3146 3146 3146 3145 3144 3143 3142 3141 3140 3139 3137 3135 3133 3130 3128 3126 3124 3123
3093 3095 3098 3100 3095 3101 3110 3117 3123 3127 3130 3134 3136 3136 3136 3137 3138 3139 3141 3141 3142 3143 3143 3143 3143 3143 3142 3141 3141 3140 3139 3138 3138 3136 3135 3133 3131 3129 3127 3125 3122 3121 3120
3081 3085 3088 3091 3090 3095 3106 3111 3118 3122 3125 3129 3130 3130 3131 3132 3133 3134 3136 3136 3137 3138 3138 3139 3138 3137 3137 3137 3136 3135 3134 3134 3133 3131 3130 3129 3128 3125 3122 3120 3118 3117 3116
3070 3073 3079 3082 3087 3090 3101 3109 3112 3116 3120 3122 3123 3125 3126 3126 3128 3129 3130 3132 3132 3133 3134 3133 3134 3133 3131 3131 3131 3131 3130 3129 3128 3127 3125 3124 3122 3120 3118 3116 3113 3112 3111
3062 3065 3073 3076 3080 3084 3096 3101 3106 3109 3113 3115 3117 3119 3119 3121 3122 3122 3123 3125 3125 3126 3127 3127 3127 3127 3126 3126 3126 3125 3125 3124 3123 3121 3120 3119 3117 3115 3113 3112 3108 3107 3106
3056 3055 3064 3072 3078 3083 3089 3093 3099 3103 3107 3109 3111 3112 3111 3114 3116 3116 3116 3117 3119 3120 3121 3122 3121 3122 3120 3119 3120 3119 3119 3118 3117 3116 3115 3113 3111 3109 3108 3106 3104 3103 3102
3049 3051 3054 3064 3071 3076 3082 3088 3093 3096 3100 3102 3103 3104 3105 3108 3108 3109 3109 3110 3112 3113 3114 3115 3117 3115 3115 3113 3113 3113 3113 3112 3110 3109 3108 3107 3106 3105 3104 3103 3102 3100 3097
3044 3047 3052 3057 3063 3068 3074 3079 3084 3088 3092 3095 3095 3097 3098 3099 3100 3101 3102 3104 3104 3106 3107 3106 3107 3108 3106 3106 3107 3105 3105 3104 3104 3104 3103 3102 3099 3101 3099 3098 3096 3094 3093
3040 3044 3048 3052 3058 3063 3067 3070 3074 3077 3081 3084 3086 3087 3088 3090 3091 3092 3093 3094 3095 3096 3096 3095 3096 3097 3097 3096 3095 3094 3096 3098 3097 3098 3097 3096 3094 3094 3092 3092 3091 3091 3090
3037 3041 3044 3048 3052 3057 3061 3063 3068 3071 3073 3076 3078 3079 3080 3080 3081 3083 3083 3085 3083 3083 3084 3083 3085 3085 3086 3085 3084 3087 3089 3090 3091 3092 3091 3089 3089 3088 3088 3086 3084 3083 3082
3035 3040 3043 3045 3048 3049 3052 3054 3060 3058 3061 3064 3067 3069 3071 3072 3072 3072 3074 3075 3072 3072 3069 3071 3072 3074 3075 3076 3076 3078 3080 3083 3085 3085 3084 3084 3083 3082 3080 3079 3079 3077 3077
3035 3037 3038 3040 3043 3046 3047 3049 3051 3053 3054 3056 3059 3059 3060 3062 3062 3063 3063 3062 3061 3061 3060 3060 3060 3061 3065 3067 3068 3071 3075 3076 3077 3078 3077 3077 3076 3076 3076 3074 3074 3073 3072
3034 3032 3034 3037 3040 3042 3043 3043 3045 3045 3046 3049 3050 3051 3051 3050 3051 3053 3054 3052 3053 3054 3055 3055 3056 3057 3057 3059 3061 3064 3067 3069 3070 3070 3070 3070 3071 3070 3070 3069 3068 3067 3066
3031 3032 3034 3035 3037 3036 3037 3037 3038 3039 3041 3042 3042 3042 3043 3043 3043 3045 3046 3046 3045 3047 3049 3050 3051 3053 3053 3055 3057 3058 3061 3061 3062 3064 3064 3063 3063 3063 3063 3062 3062 3061 3059
3032 3032 3032 3033 3033 3033 3034 3034 3034 3035 3035 3035 3035 3036 3036 3036 3037 3038 3038 3038 3040 3039 3039 3042 3045 3046 3048 3050 3051 3054 3054 3055 3055 3057 3057 3056 3056 3055 3055 3055 3053 3051 3051
3028 3028 3028 3029 3029 3028 3028 3028 3028 3029 3028 3026 3026 3027 3027 3027 3028 3029 3030 3031 3032 3031 3032 3033 3035 3039 3040 3044 3046 3048 3048 3048 3048 3049 3049 3050 3049 3048 3047 3046 3045 3044 3043
3022 3021 3021 3022 3022 3021 3020 3019 3018 3018 3017 3017 3016 3017 3017 3017 3018 3019 3020 3023 3023 3020 3022 3025 3029 3032 3034 3037 3040 3042 3042 3041 3040 3042 3043 3042 3042 3041 3041 3039 3038 3036 3036
3016 3014 3013 3012 3010 3009 3009 3009 3008 3008 3006 3006 3006 3006 3006 3007 3008 3009 3010 3012 3014 3014 3013 3014 3021 3025 3028 3029 3032 3032 3034 3034 3034 3035 3035 3036 3034 3035 3033 3032 3030 3030 3030
3008 3005 3004 3004 3003 2999 2997 2996 2994 2992 2993 2993 2993 2994 2995 2994 2996 2999 3001 3002 3006 3006 3009 3009 3012 3015 3018 3020 3021 3023 3024 3026 3027 3029 3028 3027 3026 3025 3025 3025 3024 3023 3022
2998 2996 2995 2993 2990 2987 2985 2985 2982 2982 2981 2980 2980 2981 2982 2982 2984 2987 2990 2992 2994 2997 2999 3001 3002 3006 3009 3010 3009 3013 3016 3017 3019 3022 3020 3020 3020 3018 3017 3017 3018 3017 3016
2988 2986 2984 2980 2977 2974 2972 2971 2969 2968 2968 2967 2967 2967 2968 2971 2972 2974 2977 2978 2981 2984 2984 2988 2990 2994 2995 2997 3000 3002 3005 3008 3010 3011 3012 3012 3012 3011 3010 3011 3012 3012 3012
2975 2971 2967 2963 2960 2959 2957 2955 2952 2951 2951 2951 2953 2954 2955 2957 2959 2961 2964 2966 2969 2971 2974 2979 2982 2984 2985 2988 2989 2993 2996 2997 3000 3002 3002 3003 3004 3003 3003 3003 3005 3007 3007
2957 2953 2950 2946 2942 2939 2938 2937 2936 2935 2935 2935 2937 2939 2941 2944 2944 2946 2949 2954 2958 2962 2963 2968 2970 2974 2977 2979 2981 2985 2987 2989 2990 2991 2994 2995 2996 2997 2997 2997 2998 3001 3002